RYR4596 GCRR-LEAL

Flight info

Callsign RYR4596
Flight time N/A
Altitude 34000
Route KORAL UG5 SONSO DCT NIRAL/N0445F360 UN871 OSDAM UM985 BARPA DCT XAVIR DCT PIMOS M445 ETURA T252 XEBAR M985 ASTRO
Aircraft B738/M-SDE2E3FGHIRWXY/LB1

Departure

Time N/A
Airport César Manrique-Lanzarote Airport (GCRR)

Arrival

Time 2026-05-07 16:27
Airport Alicante-Elche Miguel Hernández Airport (LEAL)
Time Latitude Longitude Altitude Speed Heading
2026-05-07 15:58 37.39650 -3.26420 33918 ft 476 kts 37°
2026-05-07 15:58 37.44243 -3.20426 33954 ft 476 kts 36°
2026-05-07 15:59 37.48831 -3.14427 33933 ft 475 kts 37°
2026-05-07 15:59 37.53406 -3.08433 33945 ft 475 kts 37°
2026-05-07 16:00 37.57982 -3.02428 33942 ft 475 kts 36°
2026-05-07 16:00 37.62544 -2.96440 33893 ft 466 kts 36°
2026-05-07 16:00 37.64759 -2.93521 33802 ft 454 kts 36°
2026-05-07 16:01 37.66921 -2.90675 33611 ft 446 kts 36°
2026-05-07 16:01 37.69061 -2.87867 33268 ft 442 kts 36°
2026-05-07 16:01 37.71188 -2.85077 32857 ft 439 kts 36°
2026-05-07 16:01 37.73300 -2.82301 32433 ft 437 kts 36°
2026-05-07 16:02 37.75396 -2.79539 32040 ft 434 kts 36°
2026-05-07 16:02 37.77477 -2.76787 31674 ft 431 kts 37°
2026-05-07 16:02 37.79540 -2.74046 31275 ft 429 kts 37°
2026-05-07 16:02 37.81590 -2.71323 30923 ft 426 kts 37°
2026-05-07 16:03 37.83621 -2.68623 30599 ft 421 kts 37°
2026-05-07 16:03 37.85630 -2.65952 30305 ft 416 kts 36°
2026-05-07 16:03 37.87620 -2.63306 29906 ft 415 kts 36°
2026-05-07 16:03 37.89607 -2.60664 29455 ft 413 kts 36°
2026-05-07 16:04 37.91581 -2.58034 29079 ft 411 kts 36°
2026-05-07 16:04 37.93540 -2.55422 28742 ft 407 kts 36°
2026-05-07 16:04 37.95479 -2.52832 28388 ft 403 kts 36°
2026-05-07 16:04 37.97402 -2.50261 28000 ft 400 kts 37°
2026-05-07 16:05 37.99289 -2.47742 27586 ft 399 kts 37°
2026-05-07 16:05 38.01218 -2.45166 27216 ft 396 kts 37°
2026-05-07 16:05 38.03109 -2.42641 26847 ft 394 kts 37°
2026-05-07 16:05 38.04986 -2.40131 26500 ft 391 kts 37°
2026-05-07 16:06 38.06829 -2.37665 26159 ft 389 kts 37°
2026-05-07 16:06 38.08685 -2.35178 25849 ft 387 kts 38°
2026-05-07 16:06 38.10530 -2.32705 25523 ft 385 kts 38°
2026-05-07 16:06 38.12364 -2.30245 25194 ft 383 kts 38°
2026-05-07 16:07 38.14190 -2.27795 24899 ft 380 kts 40°
2026-05-07 16:07 38.15998 -2.25366 24585 ft 376 kts 41°
2026-05-07 16:07 38.17784 -2.22964 24152 ft 372 kts 43°
2026-05-07 16:07 38.19514 -2.20511 23578 ft 374 kts 53°
2026-05-07 16:08 38.20736 -2.17597 22953 ft 374 kts 71°
2026-05-07 16:08 38.21320 -2.14407 22466 ft 368 kts 83°
2026-05-07 16:08 38.21638 -2.11200 21972 ft 364 kts 84°
2026-05-07 16:08 38.21912 -2.08013 21445 ft 361 kts 85°
2026-05-07 16:09 38.22174 -2.04854 20944 ft 358 kts 85°
2026-05-07 16:09 38.22438 -2.01724 20462 ft 354 kts 84°
2026-05-07 16:09 38.22707 -1.98629 19992 ft 350 kts 85°
2026-05-07 16:09 38.22977 -1.95561 19511 ft 348 kts 84°
2026-05-07 16:10 38.23249 -1.92521 19051 ft 344 kts 84°
2026-05-07 16:10 38.23521 -1.89508 18628 ft 340 kts 84°
2026-05-07 16:10 38.23788 -1.86549 18266 ft 334 kts 84°
2026-05-07 16:10 38.24053 -1.83631 17750 ft 331 kts 84°
2026-05-07 16:11 38.24315 -1.80728 17224 ft 329 kts 84°
2026-05-07 16:11 38.24575 -1.77845 16722 ft 327 kts 84°
2026-05-07 16:11 38.24833 -1.74986 16231 ft 324 kts 84°
2026-05-07 16:11 38.25087 -1.72148 15739 ft 322 kts 84°
2026-05-07 16:12 38.25340 -1.69332 15277 ft 319 kts 84°
2026-05-07 16:12 38.25589 -1.66536 14831 ft 317 kts 84°
2026-05-07 16:12 38.25837 -1.63759 14364 ft 315 kts 84°
2026-05-07 16:12 38.26079 -1.61036 13929 ft 313 kts 84°
2026-05-07 16:13 38.26321 -1.58300 13464 ft 310 kts 84°
2026-05-07 16:13 38.26561 -1.55582 12986 ft 308 kts 84°
2026-05-07 16:13 38.26799 -1.52886 12580 ft 305 kts 84°
2026-05-07 16:13 38.27032 -1.50231 12207 ft 299 kts 85°
2026-05-07 16:14 38.27262 -1.47606 11709 ft 298 kts 85°
2026-05-07 16:14 38.27491 -1.44992 11275 ft 295 kts 85°
2026-05-07 16:14 38.27716 -1.42414 10851 ft 292 kts 85°
2026-05-07 16:14 38.27939 -1.39854 10447 ft 289 kts 85°
2026-05-07 16:15 38.28157 -1.37339 10094 ft 284 kts 85°
2026-05-07 16:15 38.28371 -1.34858 9701 ft 280 kts 86°
2026-05-07 16:15 38.28584 -1.32398 9241 ft 279 kts 85°
2026-05-07 16:15 38.28795 -1.29957 8829 ft 275 kts 85°
2026-05-07 16:16 38.29001 -1.27556 8472 ft 270 kts 85°
2026-05-07 16:16 38.29202 -1.25212 8180 ft 263 kts 85°
2026-05-07 16:16 38.29399 -1.22908 7927 ft 261 kts 85°
2026-05-07 16:16 38.29595 -1.20613 7651 ft 261 kts 85°
2026-05-07 16:17 38.29789 -1.18326 7384 ft 259 kts 85°
2026-05-07 16:17 38.29981 -1.16056 7136 ft 257 kts 85°
2026-05-07 16:17 38.30172 -1.13802 6899 ft 255 kts 84°
2026-05-07 16:17 38.30361 -1.11559 6635 ft 254 kts 84°
2026-05-07 16:18 38.30549 -1.09337 6429 ft 251 kts 84°
2026-05-07 16:18 38.30731 -1.07168 6360 ft 241 kts 84°
2026-05-07 16:18 38.30906 -1.05086 6268 ft 233 kts 84°
2026-05-07 16:18 38.31075 -1.03068 6159 ft 225 kts 84°
2026-05-07 16:19 38.31238 -1.01124 6088 ft 217 kts 84°
2026-05-07 16:19 38.31394 -0.99249 5981 ft 210 kts 84°
2026-05-07 16:19 38.31547 -0.97414 5792 ft 206 kts 84°
2026-05-07 16:19 38.31698 -0.95606 5571 ft 204 kts 84°
2026-05-07 16:20 38.31844 -0.93843 5358 ft 202 kts 83°
2026-05-07 16:20 38.31990 -0.92083 5133 ft 198 kts 83°
2026-05-07 16:20 38.32129 -0.90359 4927 ft 193 kts 83°
2026-05-07 16:20 38.32275 -0.88642 4783 ft 198 kts 83°
2026-05-07 16:21 38.32381 -0.86856 4531 ft 207 kts 84°
2026-05-07 16:21 38.32420 -0.85011 4230 ft 211 kts 98°
2026-05-07 16:21 38.32130 -0.83226 4119 ft 202 kts 101°
2026-05-07 16:21 38.31838 -0.81485 3857 ft 198 kts 100°
2026-05-07 16:22 38.31582 -0.79779 3611 ft 194 kts 99°
2026-05-07 16:22 38.31345 -0.78109 3337 ft 189 kts 99°
2026-05-07 16:22 38.31114 -0.76488 3101 ft 184 kts 98°
2026-05-07 16:22 38.30892 -0.74919 2890 ft 175 kts 99°
2026-05-07 16:23 38.30679 -0.73407 2654 ft 173 kts 97°
2026-05-07 16:23 38.30467 -0.71908 2412 ft 172 kts 99°
2026-05-07 16:23 38.30251 -0.70437 2202 ft 165 kts 95°
2026-05-07 16:23 38.30075 -0.69041 1956 ft 155 kts 97°
2026-05-07 16:24 38.29885 -0.67739 1758 ft 147 kts 98°
2026-05-07 16:24 38.29704 -0.66456 1582 ft 147 kts 97°
2026-05-07 16:24 38.29524 -0.65162 1369 ft 152 kts 99°
2026-05-07 16:24 38.29333 -0.63825 1156 ft 154 kts 99°
2026-05-07 16:25 38.29149 -0.62489 973 ft 153 kts 98°
2026-05-07 16:25 38.28969 -0.61164 726 ft 151 kts 101°
2026-05-07 16:25 38.28785 -0.59872 573 ft 146 kts 100°
2026-05-07 16:25 38.28606 -0.58609 363 ft 144 kts 99°
2026-05-07 16:26 38.28434 -0.57366 170 ft 142 kts 100°
2026-05-07 16:26 38.28271 -0.56203 112 ft 122 kts 99°
2026-05-07 16:26 38.28140 -0.55263 80 ft 85 kts 100°
2026-05-07 16:26 38.28091 -0.54922 70 ft 53 kts 101°
2026-05-07 16:27 38.28037 -0.54526 57 ft 14 kts 94°
2026-05-07 16:27 38.28069 -0.54466 58 ft 6 kts 22°
2026-05-07 16:27 38.28114 -0.54456 56 ft 7 kts 10°
2026-05-07 16:27 38.28175 -0.54445 55 ft 9 kts 354°
2026-05-07 16:28 38.28212 -0.54508 55 ft 11 kts 280°
2026-05-07 16:28 38.28227 -0.54615 55 ft 13 kts 280°
2026-05-07 16:28 38.28243 -0.54731 62 ft 13 kts 280°
2026-05-07 16:28 38.28258 -0.54837 63 ft 13 kts 280°
2026-05-07 16:29 38.28275 -0.54958 68 ft 15 kts 280°
2026-05-07 16:29 38.28293 -0.55086 74 ft 14 kts 280°
2026-05-07 16:29 38.28307 -0.55177 81 ft 9 kts 292°
2026-05-07 16:29 38.28340 -0.55203 81 ft 6 kts
2026-05-07 16:30 38.28382 -0.55166 80 ft 9 kts 46°
2026-05-07 16:30 38.28429 -0.55166 85 ft 4 kts 315°
2026-05-07 16:30 38.28443 -0.55215 84 ft 7 kts 283°
2026-05-07 16:30 38.28479 -0.55241 85 ft 6 kts
2026-05-07 16:31 38.28511 -0.55235 90 ft 4 kts 10°
2026-05-07 16:31 38.28523 -0.55232 90 ft 1 kts 11°
2026-05-07 16:31 38.28524 -0.55232 90 ft 0 kts 11°